AAL2855 KLAS-KJFK

Flight info

Callsign AAL2855
Flight time N/A
Altitude 35000
Route GIDGT3 TUKRR KD45Q HBU MCI BAYLI/N0444F370 J80 SPI WWODD RINTE KLYNE Q29 JHW Q476 WLKES PUCKY1
Aircraft B738/M-SDE2E3FGHIRWXY/LB1

Departure

Time 2026-05-04 17:15
Airport Harry Reid International Airport (KLAS)

Arrival

Time N/A
Airport John F. Kennedy International Airport (KJFK)
Time Latitude Longitude Altitude Speed Heading
2026-05-04 17:09 36.07921 -115.13375 2189 ft 14 kts 180°
2026-05-04 17:10 36.07759 -115.13343 2191 ft 10 kts 113°
2026-05-04 17:10 36.07755 -115.13040 2188 ft 13 kts 90°
2026-05-04 17:11 36.07755 -115.12922 2188 ft 14 kts 90°
2026-05-04 17:11 36.07755 -115.12805 2187 ft 14 kts 89°
2026-05-04 17:11 36.07755 -115.12607 2187 ft 15 kts 90°
2026-05-04 17:12 36.07756 -115.12472 2187 ft 16 kts 90°
2026-05-04 17:12 36.07755 -115.12216 2187 ft 14 kts 90°
2026-05-04 17:13 36.07645 -115.12147 2190 ft 7 kts 252°
2026-05-04 17:14 36.07644 -115.12166 2189 ft 0 kts 266°
2026-05-04 17:14 36.07643 -115.12264 2188 ft 35 kts 270°
2026-05-04 17:14 36.07639 -115.13986 2189 ft 158 kts 269°
2026-05-04 17:15 36.07644 -115.15528 2309 ft 193 kts 268°
2026-05-04 17:15 36.07733 -115.18756 3870 ft 192 kts 270°
2026-05-04 17:16 36.07689 -115.22428 4499 ft 229 kts 268°
2026-05-04 17:16 36.08649 -115.28141 6038 ft 245 kts 320°
2026-05-04 17:17 36.10242 -115.29036 6282 ft 262 kts 348°
2026-05-04 17:17 36.15655 -115.28736 8052 ft 278 kts 40°
2026-05-04 17:18 36.16916 -115.26868 8408 ft 289 kts 63°
2026-05-04 17:18 36.18559 -115.22275 9745 ft 297 kts 73°
2026-05-04 17:19 36.19714 -115.17218 10495 ft 322 kts 92°
2026-05-04 17:19 36.19686 -115.11377 11108 ft 352 kts 94°
2026-05-04 17:20 36.19640 -115.05257 12409 ft 357 kts 94°
2026-05-04 17:20 36.19621 -114.99057 13643 ft 366 kts 94°
2026-05-04 17:20 36.19617 -114.95891 14245 ft 369 kts 94°
2026-05-04 17:21 36.19610 -114.89433 15286 ft 380 kts 94°
2026-05-04 17:21 36.19603 -114.82807 16329 ft 390 kts 94°
2026-05-04 17:22 36.19598 -114.79426 16849 ft 394 kts 94°
2026-05-04 17:22 36.19592 -114.76013 17361 ft 399 kts 94°
2026-05-04 17:23 36.19566 -114.65517 18796 ft 412 kts 94°
2026-05-04 17:23 36.19558 -114.61950 19258 ft 416 kts 94°
2026-05-04 17:23 36.19539 -114.54709 20076 ft 425 kts 94°
2026-05-04 17:24 36.19528 -114.51027 20511 ft 429 kts 94°
2026-05-04 17:24 36.19490 -114.39843 21760 ft 441 kts 94°
2026-05-04 17:25 36.19475 -114.36030 22155 ft 445 kts 94°
2026-05-04 17:25 36.19440 -114.28299 22918 ft 454 kts 94°
2026-05-04 17:26 36.19643 -114.20434 23649 ft 464 kts 86°
2026-05-04 17:26 36.21183 -114.08428 24591 ft 475 kts 83°
2026-05-04 17:27 36.22234 -114.00363 25241 ft 481 kts 84°
2026-05-04 17:27 36.23235 -113.92077 25768 ft 489 kts 84°
2026-05-04 17:28 36.24217 -113.83684 26368 ft 495 kts 85°
2026-05-04 17:29 36.25699 -113.70914 27222 ft 503 kts 85°
2026-05-04 17:29 36.27200 -113.57898 27951 ft 513 kts 85°
2026-05-04 17:30 36.28705 -113.44718 28667 ft 522 kts 85°
2026-05-04 17:31 36.29718 -113.35771 29166 ft 526 kts 85°
2026-05-04 17:31 36.31333 -113.22170 29772 ft 538 kts 78°
2026-05-04 17:32 36.34143 -113.13519 30255 ft 542 kts 66°
2026-05-04 17:33 36.38872 -113.00689 30931 ft 545 kts 66°
2026-05-04 17:33 36.40392 -112.96445 31166 ft 545 kts 66°
2026-05-04 17:34 36.44956 -112.83423 31785 ft 548 kts 67°
2026-05-04 17:34 36.46469 -112.79068 32002 ft 549 kts 67°
2026-05-04 17:35 36.51023 -112.65960 32623 ft 552 kts 66°
2026-05-04 17:35 36.54070 -112.57175 33043 ft 554 kts 66°
2026-05-04 17:35 36.55593 -112.52775 33292 ft 554 kts 66°
2026-05-04 17:36 36.57114 -112.48371 33478 ft 555 kts 66°
2026-05-04 17:36 36.58638 -112.43956 33690 ft 556 kts 66°
2026-05-04 17:36 36.60145 -112.39583 33866 ft 557 kts 66°
2026-05-04 17:36 36.61672 -112.35143 34067 ft 556 kts 66°
2026-05-04 17:37 36.63186 -112.30737 34442 ft 551 kts 66°
2026-05-04 17:37 36.64690 -112.26350 34623 ft 552 kts 66°
2026-05-04 17:37 36.66198 -112.21948 34706 ft 554 kts 66°
2026-05-04 17:37 36.67714 -112.17517 34824 ft 556 kts 66°
2026-05-04 17:38 36.69223 -112.13098 34957 ft 553 kts 66°
2026-05-04 17:38 36.72224 -112.04288 34945 ft 551 kts 66°
2026-05-04 17:39 36.76706 -111.91086 34956 ft 556 kts 66°
2026-05-04 17:39 36.79728 -111.82153 34967 ft 559 kts 66°
2026-05-04 17:40 36.82759 -111.73163 34983 ft 564 kts 66°
2026-05-04 17:40 36.85832 -111.64092 35037 ft 571 kts 65°
2026-05-04 17:41 36.89305 -111.55132 35078 ft 575 kts 61°
2026-05-04 17:41 36.92985 -111.46214 34947 ft 580 kts 61°
2026-05-04 17:42 36.96589 -111.37351 35050 ft 571 kts 62°
2026-05-04 17:42 37.00122 -111.28476 35040 ft 569 kts 62°
2026-05-04 17:43 37.03625 -111.19601 35001 ft 568 kts 62°
2026-05-04 17:43 37.07122 -111.10730 34896 ft 569 kts 62°
2026-05-04 17:44 37.10616 -111.01852 34940 ft 568 kts 62°
2026-05-04 17:44 37.14104 -110.92962 34949 ft 568 kts 62°
2026-05-04 17:45 37.17561 -110.84131 34944 ft 568 kts 62°
2026-05-04 17:45 37.21043 -110.75207 34946 ft 569 kts 62°
2026-05-04 17:46 37.24517 -110.66283 34945 ft 569 kts 62°
2026-05-04 17:46 37.27989 -110.57354 34947 ft 569 kts 62°
2026-05-04 17:47 37.31448 -110.48403 34946 ft 570 kts 62°
2026-05-04 17:47 37.34908 -110.39428 34948 ft 570 kts 62°
2026-05-04 17:48 37.38363 -110.30447 34941 ft 571 kts 62°
2026-05-04 17:48 37.41788 -110.21518 34963 ft 571 kts 62°
2026-05-04 17:49 37.45236 -110.12504 34964 ft 572 kts 62°
2026-05-04 17:49 37.48678 -110.03478 34973 ft 572 kts 62°
2026-05-04 17:50 37.52042 -109.94383 34967 ft 573 kts 64°
2026-05-04 17:50 37.55134 -109.85130 35017 ft 573 kts 66°
2026-05-04 17:51 37.58169 -109.75846 35059 ft 572 kts 65°
2026-05-04 17:51 37.61217 -109.66643 35092 ft 570 kts 65°
2026-05-04 17:52 37.64293 -109.57439 35140 ft 569 kts 65°
2026-05-04 17:52 37.67366 -109.48234 35135 ft 568 kts 65°
2026-05-04 17:53 37.70422 -109.39041 35119 ft 568 kts 65°
2026-05-04 17:53 37.73466 -109.29842 35068 ft 567 kts 65°
2026-05-04 17:54 37.76498 -109.20648 35034 ft 567 kts 65°
2026-05-04 17:54 37.79527 -109.11437 34969 ft 567 kts 65°
2026-05-04 17:55 37.82531 -109.02271 34965 ft 567 kts 65°
2026-05-04 17:55 37.85548 -108.93039 34973 ft 567 kts 65°
2026-05-04 17:56 37.88554 -108.83808 34966 ft 568 kts 65°
2026-05-04 17:56 37.91559 -108.74555 34959 ft 567 kts 65°
2026-05-04 17:57 37.94549 -108.65311 34970 ft 566 kts 64°
2026-05-04 17:57 37.97512 -108.56126 34978 ft 567 kts 64°
2026-05-04 17:58 38.00490 -108.46863 34973 ft 567 kts 64°
2026-05-04 17:58 38.03459 -108.37598 34971 ft 566 kts 64°
2026-05-04 17:59 38.05916 -108.29906 34916 ft 568 kts 64°
2026-05-04 17:59 38.08869 -108.20635 35054 ft 564 kts 64°
2026-05-04 18:00 38.10338 -108.16016 35070 ft 564 kts 64°
2026-05-04 18:00 38.13263 -108.06780 35127 ft 563 kts 64°
2026-05-04 18:01 38.16181 -107.97546 35134 ft 563 kts 64°
2026-05-04 18:01 38.19092 -107.88308 35105 ft 562 kts 64°
2026-05-04 18:02 38.23431 -107.74473 35043 ft 561 kts 64°
2026-05-04 18:02 38.26294 -107.65308 35040 ft 562 kts 64°
2026-05-04 18:03 38.29176 -107.56050 35016 ft 561 kts 64°
2026-05-04 18:03 38.32045 -107.46803 34930 ft 561 kts 64°
2026-05-04 18:04 38.34894 -107.37586 34895 ft 557 kts 64°
2026-05-04 18:05 38.39137 -107.23816 34974 ft 562 kts 64°
2026-05-04 18:05 38.41995 -107.14495 35027 ft 565 kts 64°
2026-05-04 18:06 38.45811 -107.00354 35064 ft 561 kts 78°
2026-05-04 18:06 38.46993 -106.90523 35090 ft 562 kts 80°
2026-05-04 18:07 38.48063 -106.80629 35072 ft 563 kts 80°
2026-05-04 18:07 38.49181 -106.70730 35006 ft 564 kts 79°
2026-05-04 18:08 38.50347 -106.60827 34955 ft 564 kts 79°
2026-05-04 18:08 38.51519 -106.50907 34901 ft 564 kts 79°
2026-05-04 18:09 38.53821 -106.31116 34932 ft 564 kts 79°
2026-05-04 18:10 38.54952 -106.21228 35020 ft 561 kts 79°
2026-05-04 18:10 38.56071 -106.11366 35033 ft 560 kts 79°
2026-05-04 18:11 38.57180 -106.01528 35041 ft 558 kts 79°
2026-05-04 18:11 38.58275 -105.91772 35026 ft 558 kts 79°
2026-05-04 18:12 38.59365 -105.81973 34958 ft 554 kts 80°
2026-05-04 18:12 38.60439 -105.72208 34891 ft 556 kts 79°
2026-05-04 18:13 38.61511 -105.62419 34817 ft 556 kts 79°
2026-05-04 18:14 38.63100 -105.47745 34787 ft 554 kts 79°
2026-05-04 18:14 38.64147 -105.37983 34800 ft 554 kts 79°
2026-05-04 18:15 38.66216 -105.18470 34825 ft 555 kts 80°
2026-05-04 18:16 38.67246 -105.08630 34843 ft 558 kts 80°
2026-05-04 18:16 38.68268 -104.98773 34895 ft 559 kts 80°
2026-05-04 18:17 38.69794 -104.83939 34906 ft 558 kts 79°
2026-05-04 18:18 38.71282 -104.69232 34925 ft 557 kts 80°
2026-05-04 18:18 38.72268 -104.59398 34916 ft 556 kts 80°
2026-05-04 18:19 38.73732 -104.44651 34835 ft 556 kts 80°
2026-05-04 18:19 38.74697 -104.34818 34807 ft 555 kts 80°
2026-05-04 18:20 38.75651 -104.25009 34750 ft 554 kts 80°
2026-05-04 18:20 38.76595 -104.15221 34685 ft 553 kts 80°
2026-05-04 18:21 38.77522 -104.05510 34686 ft 551 kts 80°
2026-05-04 18:21 38.78446 -103.95753 34682 ft 550 kts 80°
2026-05-04 18:22 38.79360 -103.86015 34685 ft 549 kts 80°
2026-05-04 18:22 38.80263 -103.76308 34680 ft 548 kts 80°
2026-05-04 18:23 38.81157 -103.66609 34679 ft 548 kts 80°
2026-05-04 18:23 38.82037 -103.56967 34670 ft 547 kts 80°
2026-05-04 18:24 38.82914 -103.47281 34670 ft 546 kts 80°
2026-05-04 18:24 38.83780 -103.37613 34672 ft 545 kts 81°
2026-05-04 18:25 38.84637 -103.27959 34680 ft 544 kts 81°
2026-05-04 18:25 38.85486 -103.18302 34675 ft 544 kts 81°
2026-05-04 18:26 38.86320 -103.08726 34684 ft 543 kts 81°
2026-05-04 18:26 38.87151 -102.99084 34674 ft 543 kts 81°
2026-05-04 18:27 38.87974 -102.89449 34683 ft 542 kts 81°
2026-05-04 18:27 38.88786 -102.79842 34679 ft 541 kts 81°
2026-05-04 18:28 38.89591 -102.70231 34684 ft 540 kts 81°
2026-05-04 18:28 38.90385 -102.60652 34688 ft 539 kts 81°
2026-05-04 18:29 38.91165 -102.51137 34690 ft 539 kts 81°
2026-05-04 18:29 38.91942 -102.41578 34706 ft 538 kts 81°
2026-05-04 18:30 38.93092 -102.27228 34718 ft 537 kts 81°
2026-05-04 18:31 38.93842 -102.17755 34718 ft 536 kts 81°
2026-05-04 18:31 38.94589 -102.08217 34714 ft 535 kts 81°
2026-05-04 18:32 38.95326 -101.98704 34693 ft 534 kts 81°
2026-05-04 18:32 38.96050 -101.89258 34695 ft 534 kts 81°
2026-05-04 18:33 38.96771 -101.79752 34690 ft 533 kts 81°
2026-05-04 18:33 38.97483 -101.70256 34691 ft 533 kts 81°
2026-05-04 18:34 38.98187 -101.60768 34687 ft 533 kts 81°
2026-05-04 18:34 38.98880 -101.51331 34686 ft 533 kts 82°
2026-05-04 18:35 38.99569 -101.41831 34685 ft 533 kts 82°
2026-05-04 18:35 39.00249 -101.32345 34683 ft 533 kts 82°
2026-05-04 18:36 39.00918 -101.22905 34701 ft 533 kts 82°
2026-05-04 18:36 39.01584 -101.13403 34719 ft 533 kts 82°
2026-05-04 18:37 39.02243 -101.03889 34746 ft 533 kts 82°
2026-05-04 18:37 39.02890 -100.94431 34768 ft 533 kts 82°
2026-05-04 18:38 39.03487 -100.85602 34777 ft 533 kts 82°
2026-05-04 18:38 39.04122 -100.76099 34779 ft 532 kts 82°
2026-05-04 18:39 39.04749 -100.66598 34768 ft 532 kts 82°
2026-05-04 18:39 39.05366 -100.57134 34738 ft 532 kts 82°
2026-05-04 18:40 39.05978 -100.47625 34720 ft 532 kts 82°
2026-05-04 18:40 39.06578 -100.38184 34701 ft 532 kts 82°
2026-05-04 18:41 39.07174 -100.28688 34695 ft 532 kts 82°
2026-05-04 18:41 39.07763 -100.19171 34698 ft 532 kts 82°
2026-05-04 18:42 39.08343 -100.09672 34702 ft 532 kts 82°
2026-05-04 18:42 39.08913 -100.00224 34706 ft 532 kts 82°
2026-05-04 18:43 39.09477 -99.90726 34721 ft 532 kts 82°
2026-05-04 18:43 39.10039 -99.81171 34946 ft 536 kts 82°
2026-05-04 18:43 39.10316 -99.76388 35134 ft 536 kts 82°
2026-05-04 18:44 39.10589 -99.71655 35337 ft 536 kts 82°
2026-05-04 18:44 39.11135 -99.62064 35654 ft 537 kts 82°
2026-05-04 18:44 39.11405 -99.57263 35826 ft 537 kts 82°
2026-05-04 18:45 39.11674 -99.52456 35987 ft 537 kts 83°
2026-05-04 18:45 39.11938 -99.47708 36125 ft 538 kts 83°
2026-05-04 18:45 39.12202 -99.42904 36284 ft 538 kts 83°
2026-05-04 18:45 39.12466 -99.38077 36408 ft 539 kts 83°
2026-05-04 18:46 39.12729 -99.33249 36478 ft 541 kts 83°
2026-05-04 18:46 39.13250 -99.23549 36667 ft 543 kts 83°
2026-05-04 18:47 39.13765 -99.13800 36708 ft 547 kts 83°
2026-05-04 18:47 39.14276 -99.03988 36701 ft 551 kts 83°
2026-05-04 18:48 39.14778 -98.94165 36694 ft 554 kts 83°
2026-05-04 18:48 39.15191 -98.85931 36688 ft 551 kts 83°
2026-05-04 18:49 39.15673 -98.76148 36684 ft 544 kts 83°
2026-05-04 18:49 39.16146 -98.66438 36691 ft 541 kts 83°
2026-05-04 18:50 39.16612 -98.56745 36678 ft 540 kts 83°
2026-05-04 18:50 39.17064 -98.47146 36676 ft 539 kts 83°
2026-05-04 18:51 39.17511 -98.37486 36681 ft 540 kts 83°
2026-05-04 18:51 39.17952 -98.27802 36682 ft 541 kts 83°
2026-05-04 18:52 39.18386 -98.18078 36683 ft 543 kts 83°
2026-05-04 18:52 39.18809 -98.08392 36680 ft 544 kts 83°
2026-05-04 18:53 39.19228 -97.98633 36681 ft 546 kts 83°
2026-05-04 18:53 39.19640 -97.88839 36672 ft 547 kts 83°
2026-05-04 18:54 39.20041 -97.79097 36671 ft 547 kts 83°
2026-05-04 18:54 39.20437 -97.69283 36680 ft 547 kts 83°
2026-05-04 18:55 39.20825 -97.59466 36679 ft 547 kts 83°
2026-05-04 18:55 39.21387 -97.44860 36662 ft 545 kts 83°
2026-05-04 18:56 39.21751 -97.35112 36669 ft 543 kts 83°
2026-05-04 18:56 39.22107 -97.25398 36657 ft 542 kts 83°
2026-05-04 18:57 39.22453 -97.15707 36652 ft 540 kts 83°
2026-05-04 18:57 39.22791 -97.06042 36675 ft 539 kts 83°
2026-05-04 18:58 39.23120 -96.96399 36677 ft 538 kts 83°
2026-05-04 18:58 39.23441 -96.86767 36692 ft 537 kts 83°
2026-05-04 18:59 39.23752 -96.77174 36697 ft 536 kts 83°
2026-05-04 18:59 39.24056 -96.67570 36707 ft 535 kts 83°
2026-05-04 19:00 39.24352 -96.57971 36693 ft 535 kts 83°
2026-05-04 19:00 39.24640 -96.48374 36696 ft 534 kts 83°
2026-05-04 19:01 39.24918 -96.38840 36681 ft 534 kts 83°
2026-05-04 19:01 39.25190 -96.29260 36675 ft 534 kts 84°
2026-05-04 19:02 39.25454 -96.19664 36663 ft 534 kts 84°
2026-05-04 19:02 39.25708 -96.10142 36670 ft 533 kts 84°
2026-05-04 19:03 39.25956 -96.00577 36669 ft 533 kts 84°
2026-05-04 19:03 39.26195 -95.91022 36681 ft 532 kts 84°
2026-05-04 19:04 39.26427 -95.81466 36682 ft 531 kts 84°
2026-05-04 19:04 39.26648 -95.72013 36685 ft 529 kts 84°
2026-05-04 19:05 39.26863 -95.62510 36684 ft 528 kts 84°
2026-05-04 19:05 39.27069 -95.53047 36689 ft 525 kts 84°
2026-05-04 19:06 39.27266 -95.43693 36680 ft 524 kts 84°
2026-05-04 19:06 39.27456 -95.34305 36682 ft 522 kts 84°
2026-05-04 19:07 39.27637 -95.24954 36685 ft 520 kts 85°
2026-05-04 19:07 39.27810 -95.15666 36682 ft 519 kts 85°
2026-05-04 19:08 39.27975 -95.06364 36683 ft 517 kts 85°
2026-05-04 19:08 39.28134 -94.97069 36687 ft 517 kts 85°
2026-05-04 19:09 39.28285 -94.87795 36707 ft 516 kts 85°
2026-05-04 19:09 39.28428 -94.78596 36707 ft 516 kts 85°
2026-05-04 19:10 39.28935 -94.69402 36707 ft 510 kts 76°
2026-05-04 19:10 39.30149 -94.60352 36706 ft 510 kts 75°
2026-05-04 19:11 39.31400 -94.51386 36699 ft 510 kts 75°
2026-05-04 19:11 39.32612 -94.42336 36714 ft 511 kts 75°
2026-05-04 19:12 39.34367 -94.28727 36713 ft 511 kts 76°
2026-05-04 19:13 39.35515 -94.19722 36710 ft 511 kts 76°
2026-05-04 19:13 39.36665 -94.10656 36697 ft 510 kts 76°
2026-05-04 19:14 39.37807 -94.01612 36693 ft 509 kts 76°
2026-05-04 19:14 39.38943 -93.92555 36673 ft 508 kts 76°
2026-05-04 19:15 39.40065 -93.83554 36676 ft 507 kts 76°
2026-05-04 19:15 39.41172 -93.74617 36684 ft 505 kts 76°
2026-05-04 19:16 39.42277 -93.65637 36678 ft 504 kts 76°
2026-05-04 19:16 39.43372 -93.56676 36679 ft 502 kts 76°
2026-05-04 19:17 39.44451 -93.47790 36682 ft 501 kts 76°
2026-05-04 19:17 39.45525 -93.38882 36686 ft 500 kts 77°
2026-05-04 19:18 39.46590 -93.29997 36688 ft 499 kts 77°
2026-05-04 19:18 39.47638 -93.21191 36690 ft 498 kts 77°
2026-05-04 19:19 39.48685 -93.12336 36701 ft 497 kts 77°
2026-05-04 19:19 39.49724 -93.03491 36696 ft 496 kts 77°
2026-05-04 19:20 39.50755 -92.94660 36699 ft 496 kts 77°
2026-05-04 19:20 39.51778 -92.85831 36708 ft 495 kts 77°
2026-05-04 19:21 39.52792 -92.77012 36709 ft 495 kts 78°
2026-05-04 19:21 39.53795 -92.68239 36714 ft 494 kts 78°
2026-05-04 19:22 39.54795 -92.59425 36716 ft 494 kts 78°
2026-05-04 19:22 39.55787 -92.50622 36719 ft 493 kts 78°
2026-05-04 19:23 39.56772 -92.41828 36717 ft 492 kts 78°
2026-05-04 19:23 39.57749 -92.33035 36718 ft 491 kts 78°
2026-05-04 19:24 39.58710 -92.24325 36715 ft 490 kts 78°
2026-05-04 19:24 39.59669 -92.15569 36706 ft 489 kts 79°
2026-05-04 19:25 39.60619 -92.06843 36703 ft 488 kts 79°
2026-05-04 19:25 39.61560 -91.98130 36690 ft 487 kts 79°
2026-05-04 19:26 39.62488 -91.89476 36693 ft 486 kts 79°
2026-05-04 19:26 39.63413 -91.80789 36699 ft 486 kts 79°
2026-05-04 19:27 39.64333 -91.72087 36704 ft 486 kts 79°
2026-05-04 19:27 39.65244 -91.63405 36715 ft 485 kts 79°
2026-05-04 19:28 39.66151 -91.54704 36721 ft 486 kts 79°
2026-05-04 19:28 39.67045 -91.46054 36724 ft 485 kts 79°
2026-05-04 19:29 39.67937 -91.37356 36726 ft 485 kts 80°
2026-05-04 19:29 39.68818 -91.28706 36716 ft 486 kts 80°
2026-05-04 19:29 39.69259 -91.24354 36974 ft 486 kts 80°
2026-05-04 19:30 39.69697 -91.20007 37012 ft 486 kts 80°
2026-05-04 19:30 39.70571 -91.11311 37018 ft 486 kts 80°
2026-05-04 19:31 39.71438 -91.02598 37017 ft 486 kts 80°
2026-05-04 19:31 39.72299 -90.93875 36983 ft 486 kts 80°
2026-05-04 19:31 39.72720 -90.89581 36716 ft 486 kts 80°
2026-05-04 19:32 39.73146 -90.85226 36719 ft 486 kts 80°
2026-05-04 19:32 39.73993 -90.76516 36721 ft 485 kts 80°
2026-05-04 19:33 39.74833 -90.67812 36713 ft 485 kts 81°
2026-05-04 19:33 39.75660 -90.59169 36711 ft 484 kts 81°
2026-05-04 19:34 39.76486 -90.50466 36707 ft 484 kts 81°
2026-05-04 19:34 39.77305 -90.41772 36716 ft 483 kts 81°
2026-05-04 19:35 39.78115 -90.33091 36721 ft 483 kts 81°
2026-05-04 19:35 39.78914 -90.24467 36721 ft 483 kts 81°
2026-05-04 19:36 39.79711 -90.15796 36720 ft 482 kts 81°
2026-05-04 19:36 39.80368 -90.08591 36720 ft 482 kts 81°
2026-05-04 19:37 39.81151 -89.99935 36713 ft 482 kts 81°
2026-05-04 19:37 39.81927 -89.91281 36717 ft 481 kts 81°
2026-05-04 19:38 39.82697 -89.82622 36718 ft 481 kts 81°
2026-05-04 19:38 39.83461 -89.73963 36722 ft 481 kts 81°
2026-05-04 19:39 39.84137 -89.65342 36724 ft 482 kts 85°
2026-05-04 19:39 39.84373 -89.56616 36723 ft 482 kts 87°
2026-05-04 19:40 39.84483 -89.47882 36721 ft 482 kts 88°
2026-05-04 19:40 39.84618 -89.39156 36721 ft 482 kts 87°
2026-05-04 19:41 39.84780 -89.30488 36720 ft 482 kts 87°
2026-05-04 19:41 39.84940 -89.22265 36735 ft 481 kts 87°
2026-05-04 19:42 39.85103 -89.13559 36743 ft 481 kts 87°
2026-05-04 19:42 39.85258 -89.04843 36752 ft 481 kts 87°
2026-05-04 19:43 39.85405 -88.96136 36759 ft 481 kts 87°
2026-05-04 19:43 39.85546 -88.87435 36757 ft 481 kts 87°
2026-05-04 19:44 39.85679 -88.78785 36758 ft 480 kts 88°
2026-05-04 19:44 39.85807 -88.70076 36757 ft 481 kts 88°
2026-05-04 19:45 39.85928 -88.61409 36744 ft 481 kts 88°
2026-05-04 19:45 39.86043 -88.52687 36745 ft 481 kts 88°
2026-05-04 19:46 39.86151 -88.43964 36749 ft 481 kts 88°
2026-05-04 19:46 39.86253 -88.35291 36754 ft 481 kts 88°
2026-05-04 19:47 39.86348 -88.26592 36754 ft 480 kts 88°
2026-05-04 19:47 39.86436 -88.17943 36756 ft 480 kts 88°
2026-05-04 19:48 39.86518 -88.09249 36757 ft 480 kts 88°
2026-05-04 19:48 39.86594 -88.00563 36760 ft 479 kts 88°
2026-05-04 19:49 39.86663 -87.91881 36767 ft 479 kts 88°
2026-05-04 19:49 39.86725 -87.83270 36778 ft 478 kts 88°
2026-05-04 19:50 39.86781 -87.74605 36784 ft 477 kts 88°
2026-05-04 19:50 39.86831 -87.65974 36785 ft 477 kts 88°
2026-05-04 19:51 39.86874 -87.57332 36785 ft 476 kts 88°
2026-05-04 19:51 39.86911 -87.48707 36781 ft 476 kts 88°
2026-05-04 19:52 39.86941 -87.40084 36777 ft 476 kts 89°
2026-05-04 19:52 39.86965 -87.31464 36775 ft 476 kts 89°
2026-05-04 19:53 39.86983 -87.22838 36779 ft 476 kts 89°
2026-05-04 19:53 39.86994 -87.14276 36785 ft 476 kts 89°
2026-05-04 19:54 39.86998 -87.05661 36788 ft 476 kts 89°
2026-05-04 19:54 39.86997 -86.97030 36787 ft 476 kts 89°
2026-05-04 19:55 39.86989 -86.88397 36783 ft 477 kts 89°
2026-05-04 19:55 39.86974 -86.79753 36787 ft 476 kts 89°
2026-05-04 19:56 39.86954 -86.71115 36777 ft 476 kts 89°
2026-05-04 19:56 39.86927 -86.62529 36787 ft 476 kts 89°
2026-05-04 19:57 39.86893 -86.53886 36788 ft 476 kts 89°
2026-05-04 19:57 39.86854 -86.45257 36799 ft 476 kts 89°
2026-05-04 19:58 39.86848 -86.36666 36795 ft 476 kts 85°
2026-05-04 19:58 39.88005 -86.28259 36809 ft 472 kts 73°
2026-05-04 19:59 39.89670 -86.19958 36787 ft 473 kts 73°
2026-05-04 19:59 39.91310 -86.11700 36799 ft 473 kts 73°
2026-05-04 20:00 39.92911 -86.03389 36796 ft 473 kts 74°
2026-05-04 20:00 39.94479 -85.95113 36792 ft 473 kts 74°
2026-05-04 20:01 39.96049 -85.86773 36796 ft 473 kts 74°
2026-05-04 20:01 39.97612 -85.78443 36797 ft 473 kts 74°
2026-05-04 20:02 39.99167 -85.70130 36796 ft 474 kts 74°
2026-05-04 20:02 40.00727 -85.61752 36789 ft 474 kts 74°
2026-05-04 20:03 40.02281 -85.53372 36788 ft 475 kts 74°
2026-05-04 20:03 40.03820 -85.45036 36783 ft 475 kts 74°
2026-05-04 20:04 40.05362 -85.36650 36799 ft 475 kts 74°
2026-05-04 20:04 40.06899 -85.28251 36768 ft 475 kts 74°
2026-05-04 20:05 40.08428 -85.19857 36769 ft 475 kts 75°
2026-05-04 20:05 40.09955 -85.11443 36770 ft 475 kts 75°
2026-05-04 20:06 40.11466 -85.03073 36769 ft 475 kts 75°
2026-05-04 20:06 40.12978 -84.94664 36762 ft 475 kts 75°
2026-05-04 20:07 40.14482 -84.86260 36781 ft 474 kts 75°
2026-05-04 20:07 40.15977 -84.77870 36789 ft 474 kts 75°
2026-05-04 20:08 40.17466 -84.69478 36796 ft 473 kts 75°
2026-05-04 20:08 40.18941 -84.61125 36805 ft 473 kts 75°
2026-05-04 20:09 40.20419 -84.52721 36803 ft 473 kts 75°
2026-05-04 20:09 40.21881 -84.44367 36806 ft 473 kts 75°
2026-05-04 20:10 40.23346 -84.35957 36805 ft 474 kts 75°
2026-05-04 20:10 40.24806 -84.27539 36790 ft 475 kts 75°
2026-05-04 20:11 40.26254 -84.19146 36780 ft 475 kts 75°
2026-05-04 20:11 40.27712 -84.10667 36797 ft 476 kts 75°
2026-05-04 20:12 40.29920 -84.02561 36808 ft 471 kts 58°
2026-05-04 20:12 40.33576 -83.95588 36818 ft 466 kts 49°
2026-05-04 20:13 40.37517 -83.88795 36823 ft 467 kts 49°
2026-05-04 20:13 40.41426 -83.81967 36822 ft 468 kts 50°
2026-05-04 20:14 40.45303 -83.75096 36814 ft 468 kts 50°
2026-05-04 20:14 40.49148 -83.68242 36811 ft 468 kts 50°
2026-05-04 20:15 40.53001 -83.61361 36793 ft 467 kts 50°
2026-05-04 20:15 40.56839 -83.54496 36785 ft 465 kts 50°
2026-05-04 20:16 40.60641 -83.47682 36777 ft 463 kts 50°
2026-05-04 20:16 40.64448 -83.40842 36782 ft 461 kts 50°
2026-05-04 20:17 40.68244 -83.34009 36784 ft 460 kts 50°
2026-05-04 20:17 40.72044 -83.27272 36779 ft 459 kts 48°
2026-05-04 20:18 40.75965 -83.20673 36785 ft 458 kts 47°
2026-05-04 20:18 40.79891 -83.14083 36785 ft 458 kts 48°
2026-05-04 20:19 40.83816 -83.07432 36787 ft 459 kts 48°
2026-05-04 20:19 40.87737 -83.00747 36790 ft 461 kts 48°
2026-05-04 20:20 40.91645 -82.94065 36786 ft 462 kts 48°
2026-05-04 20:20 40.95586 -82.87314 36784 ft 464 kts 48°
2026-05-04 20:21 40.99541 -82.80525 36777 ft 465 kts 48°
2026-05-04 20:21 41.05444 -82.70364 36776 ft 466 kts 48°
2026-05-04 20:22 41.09400 -82.63536 36771 ft 467 kts 48°
2026-05-04 20:22 41.13333 -82.56731 36776 ft 467 kts 49°
2026-05-04 20:23 41.16744 -82.49315 36769 ft 472 kts 58°
2026-05-04 20:23 41.19770 -82.41575 36759 ft 472 kts 59°
2026-05-04 20:24 41.22804 -82.33884 36762 ft 472 kts 58°
2026-05-04 20:24 41.25891 -82.26190 36758 ft 472 kts 58°
2026-05-04 20:25 41.28986 -82.18491 36759 ft 471 kts 58°
2026-05-04 20:25 41.31551 -82.12086 36762 ft 471 kts 58°
2026-05-04 20:26 41.34607 -82.04362 36758 ft 472 kts 61°
2026-05-04 20:26 41.37239 -81.96400 36751 ft 473 kts 64°
2026-05-04 20:27 41.39752 -81.88291 36749 ft 473 kts 64°
2026-05-04 20:27 41.42288 -81.80201 36750 ft 473 kts 63°
2026-05-04 20:28 41.44852 -81.72112 36739 ft 473 kts 63°
2026-05-04 20:28 41.47405 -81.64059 36743 ft 473 kts 63°
2026-05-04 20:29 41.49949 -81.56004 36759 ft 474 kts 63°
2026-05-04 20:29 41.52503 -81.47889 36759 ft 474 kts 63°
2026-05-04 20:30 41.55057 -81.39749 36761 ft 475 kts 63°
2026-05-04 20:30 41.57615 -81.31594 36740 ft 475 kts 64°
2026-05-04 20:31 41.60152 -81.23489 36747 ft 476 kts 64°
2026-05-04 20:31 41.62703 -81.15309 36742 ft 476 kts 64°
2026-05-04 20:32 41.65253 -81.07108 36743 ft 477 kts 64°
2026-05-04 20:32 41.67782 -80.98945 36751 ft 477 kts 64°
2026-05-04 20:33 41.70319 -80.90732 36753 ft 477 kts 64°
2026-05-04 20:33 41.72851 -80.82512 36761 ft 477 kts 64°
2026-05-04 20:34 41.75376 -80.74287 36758 ft 477 kts 64°
2026-05-04 20:34 41.77878 -80.66114 36758 ft 477 kts 64°
2026-05-04 20:35 41.80389 -80.57881 36758 ft 477 kts 64°
2026-05-04 20:35 41.82724 -80.49547 36758 ft 478 kts 67°
2026-05-04 20:36 41.84953 -80.41135 36758 ft 478 kts 67°
2026-05-04 20:36 41.87187 -80.32733 36759 ft 477 kts 66°
2026-05-04 20:37 41.89420 -80.24403 36760 ft 477 kts 66°
2026-05-04 20:37 41.91674 -80.16003 36750 ft 477 kts 66°
2026-05-04 20:38 41.93925 -80.07587 36758 ft 477 kts 66°
2026-05-04 20:38 41.96147 -79.99245 36757 ft 477 kts 66°
2026-05-04 20:39 41.98380 -79.90831 36766 ft 477 kts 67°
2026-05-04 20:39 42.00608 -79.82406 36773 ft 477 kts 67°
2026-05-04 20:40 42.02816 -79.74027 36774 ft 478 kts 67°
2026-05-04 20:40 42.05033 -79.65585 36790 ft 478 kts 67°
2026-05-04 20:41 42.07245 -79.57136 36784 ft 478 kts 67°
2026-05-04 20:41 42.09450 -79.48680 36788 ft 478 kts 67°
2026-05-04 20:42 42.11638 -79.40261 36792 ft 478 kts 67°
2026-05-04 20:42 42.13828 -79.31802 36788 ft 478 kts 67°
2026-05-04 20:43 42.16014 -79.23337 36791 ft 478 kts 67°
2026-05-04 20:43 42.17878 -79.14714 36777 ft 484 kts 81°
2026-05-04 20:44 42.17980 -79.10174 36791 ft 487 kts 92°
2026-05-04 20:44 42.17448 -79.05669 36783 ft 488 kts 106°
2026-05-04 20:44 42.15275 -78.96999 36790 ft 488 kts 109°
2026-05-04 20:45 42.12998 -78.88369 36795 ft 488 kts 109°
2026-05-04 20:45 42.10774 -78.79721 36794 ft 489 kts 108°
2026-05-04 20:46 42.08593 -78.71105 36807 ft 489 kts 108°
2026-05-04 20:46 42.06402 -78.62439 36799 ft 489 kts 108°
2026-05-04 20:47 42.04200 -78.53768 36792 ft 489 kts 108°
2026-05-04 20:47 42.01987 -78.45101 36800 ft 488 kts 109°
2026-05-04 20:48 41.99789 -78.36525 36795 ft 487 kts 108°
2026-05-04 20:48 41.97571 -78.27904 36813 ft 487 kts 108°
2026-05-04 20:49 41.95352 -78.19306 36825 ft 486 kts 108°
2026-05-04 20:49 41.93140 -78.10766 36810 ft 486 kts 108°
2026-05-04 20:50 41.90913 -78.02197 36805 ft 485 kts 108°
2026-05-04 20:50 41.88684 -77.93650 36811 ft 485 kts 108°
2026-05-04 20:51 41.86452 -77.85119 36813 ft 485 kts 108°
2026-05-04 20:51 41.84215 -77.76573 36831 ft 485 kts 108°
2026-05-04 20:52 41.81976 -77.68032 36821 ft 486 kts 109°
2026-05-04 20:52 41.79739 -77.59519 36825 ft 487 kts 108°
2026-05-04 20:53 41.77474 -77.50958 36812 ft 488 kts 109°
2026-05-04 20:53 41.75188 -77.42409 36805 ft 487 kts 109°
2026-05-04 20:54 41.72894 -77.33857 36807 ft 488 kts 109°
2026-05-04 20:54 41.70600 -77.25317 36811 ft 488 kts 109°
2026-05-04 20:55 41.68298 -77.16775 36811 ft 488 kts 109°
2026-05-04 20:55 41.65985 -77.08226 36821 ft 488 kts 109°
2026-05-04 20:56 41.63681 -76.99731 36804 ft 488 kts 109°
2026-05-04 20:56 41.61362 -76.91207 36810 ft 488 kts 109°
2026-05-04 20:57 41.59038 -76.82687 36616 ft 491 kts 109°
2026-05-04 20:57 41.57855 -76.78362 36107 ft 493 kts 108°
2026-05-04 20:57 41.56679 -76.74072 35583 ft 489 kts 108°
2026-05-04 20:58 41.55528 -76.69882 35206 ft 484 kts 108°
2026-05-04 20:58 41.54373 -76.65678 34788 ft 479 kts 108°
2026-05-04 20:58 41.53225 -76.61509 34374 ft 475 kts 108°
2026-05-04 20:58 41.52089 -76.57393 34056 ft 469 kts 107°
2026-05-04 20:59 41.50973 -76.53355 33789 ft 461 kts 107°
2026-05-04 20:59 41.49869 -76.49360 33380 ft 456 kts 107°
2026-05-04 20:59 41.48774 -76.45398 32947 ft 453 kts 107°
2026-05-04 20:59 41.47687 -76.41470 32569 ft 448 kts 107°
2026-05-04 21:00 41.46623 -76.37631 32172 ft 444 kts 108°
2026-05-04 21:00 41.45555 -76.33783 31769 ft 441 kts 108°
2026-05-04 21:00 41.44491 -76.29953 31391 ft 437 kts 108°
2026-05-04 21:00 41.43437 -76.26166 31015 ft 434 kts 108°
2026-05-04 21:01 41.42387 -76.22401 30640 ft 431 kts 108°
2026-05-04 21:01 41.41343 -76.18663 30268 ft 429 kts 108°
2026-05-04 21:01 41.40303 -76.14946 29891 ft 426 kts 109°
2026-05-04 21:01 41.39280 -76.11292 29466 ft 423 kts 109°
2026-05-04 21:02 41.38250 -76.07621 29055 ft 420 kts 109°
2026-05-04 21:02 41.37231 -76.03996 28681 ft 416 kts 109°
2026-05-04 21:02 41.36232 -76.00443 28284 ft 413 kts 109°
2026-05-04 21:02 41.35226 -75.96872 27902 ft 410 kts 109°
2026-05-04 21:03 41.34225 -75.93325 27512 ft 407 kts 109°
2026-05-04 21:03 41.33232 -75.89809 27139 ft 404 kts 109°
2026-05-04 21:03 41.32244 -75.86316 26759 ft 402 kts 109°
2026-05-04 21:03 41.31264 -75.82853 26394 ft 399 kts 109°
2026-05-04 21:04 41.30287 -75.79407 26027 ft 397 kts 109°
2026-05-04 21:04 41.29314 -75.75977 25659 ft 396 kts 109°
2026-05-04 21:04 41.28342 -75.72561 25295 ft 394 kts 110°
2026-05-04 21:04 41.27380 -75.69187 24939 ft 393 kts 110°
2026-05-04 21:05 41.26339 -75.65821 24496 ft 393 kts 113°
2026-05-04 21:05 41.25229 -75.62502 24139 ft 392 kts 114°
2026-05-04 21:05 41.24099 -75.59197 23752 ft 392 kts 114°
2026-05-04 21:05 41.22973 -75.55903 23395 ft 390 kts 114°